This is the latest recevied weather packets stored in our database for station/object VK3CG. If no packets are shown the sender has not sent any weather packets the latest 10 day(s).
| Time | Temp. | Humidity | Pressure | Rain* | Wind** | Luminosity | Snow |
|---|---|---|---|---|---|---|---|
| 1777201267 | 12.22° C | 60% | 1033.2 hPa | 0 mm | - | 0 W/m² | - |
| 1777200360 | 12.78° C | 59% | 1033.1 hPa | 0 mm | - | 0 W/m² | - |
| 1777199469 | 13.33° C | 57% | 1033.1 hPa | 0 mm | - | 0 W/m² | - |
| 1777198555 | 13.33° C | 56% | 1033 hPa | 0 mm | - | 0 W/m² | - |
| 1777197654 | 13.89° C | 54% | 1032.8 hPa | 0 mm | - | 0 W/m² | - |
| 1777196750 | 13.89° C | 50% | 1032.7 hPa | 0 mm | - | 0 W/m² | - |
| 1777195851 | 14.44° C | 49% | 1032.4 hPa | 0 mm | - | 0 W/m² | - |
| 1777194955 | 14.44° C | 49% | 1032.3 hPa | 0 mm | - | 0 W/m² | - |
| 1777194054 | 15.56° C | 47% | 1032.1 hPa | 0 mm | - | 0 W/m² | - |
| 1777193150 | 16.11° C | 45% | 1032 hPa | 0 mm | - | 0 W/m² | - |
| 1777192246 | 16.67° C | 44% | 1031.8 hPa | 0 mm | - | 0 W/m² | - |
| 1777191346 | 16.67° C | 42% | 1031.6 hPa | 0 mm | - | 0 W/m² | - |
| 1777190446 | 18.33° C | 38% | 1031.4 hPa | 0 mm | - | 0 W/m² | - |
| 1777189546 | 18.89° C | 37% | 1031.2 hPa | 0 mm | - | 0 W/m² | - |
| 1777188646 | 18.89° C | 36% | 1030.9 hPa | 0 mm | - | 5 W/m² | - |
| 1777187768 | 19.44° C | 35% | 1030.6 hPa | 0 mm | - | 11 W/m² | - |
| 1777186849 | 20° C | 34% | 1030.6 hPa | 0 mm | - | 19 W/m² | - |
| 1777185943 | 20.56° C | 32% | 1030.6 hPa | 0 mm | - | 26 W/m² | - |
| 1777185042 | 21.11° C | 31% | 1030.7 hPa | 0 mm | - | 32 W/m² | - |
| 1777184143 | 21.11° C | 29% | 1030.6 hPa | 0 mm | - | 128 W/m² | - |
| 1777183242 | 21.11° C | 30% | 1031.1 hPa | 0 mm | - | 47 W/m² | - |
| 1777182341 | 21.67° C | 28% | 1030.7 hPa | 0 mm | - | 77 W/m² | - |
| 1777181447 | 22.22° C | 29% | 1030.6 hPa | 0 mm | - | 304 W/m² | - |
| 1777180538 | 22.22° C | 30% | 1030.5 hPa | 0 mm | - | 79 W/m² | - |
| 1777179638 | 22.22° C | 28% | 1030.6 hPa | 0 mm | - | 413 W/m² | - |
* Rain latest hour (hover to see other rain measurements)
** Current wind speed in m/s (hover to see current wind gust speed)